Weather History for Wise, VA

Change the Weather History Date:

Monday, October 7, 2013

  Actual Average Record
Temperature  
Mean Temperature 57 °F -  
Max Temperature 66 °F 65 °F 86 °F (2007)
Min Temperature 48 °F 46 °F 33 °F (2001)
Degree Days  
Heating Degree Days 8    
Growing Degree Days 7 (Base 50)    
Moisture  
Dew Point 50 °F    
Average Humidity 81    
Maximum Humidity 100    
Minimum Humidity 52    
Precipitation  
Precipitation 0.31 in - - ()
Sea Level Pressure  
Sea Level Pressure 30.01 in    
Wind  
Wind Speed 7 mph (WNW)    
Max Wind Speed 12 mph    
Max Gust Speed 20 mph    
Visibility 10 miles    
Events Rain    
Averages and records for this station are not official NWS values.
T = Trace of Precipitation, MM = Missing Value Source: NWS Daily Summary

Daily Weather History Graph

Daily Weather History Graph

Search for Another Location

Airport:

Trip Planner

Search our weather history database for the weather conditions in past years. The results will help you decide how hot, cold, wet, or windy it might be!

Date:

Astronomy

Oct. 07, 2013 Rise Set
Actual Time 7:30 AM EDT 7:04 PM EDT
Civil Twilight 7:04 AM EDT 7:30 PM EDT
Nautical Twilight 6:34 AM EDT 8:00 PM EDT
Astronomical Twilight 6:04 AM EDT 8:30 PM EDT
Moon 10:14 AM EDT (10/7) 8:53 PM EDT (10/7)
Length of Visible Light 12h 25m
Length of Day
11h 33m
Waxing Crescent, 8% of the Moon is Illuminated
Oct 7
Waxing Crescent
Oct 11
First Quarter
Oct 18
Full
Oct 26
Last Quarter
Nov 3
New

Hourly Weather History & Observations

Time (EDT) Temp. Dew Point Humidity Pressure Visibility Wind Dir Wind Speed Gust Speed Precip Events Conditions
12:15 AM 66.2 °F 60.8 °F 83% 29.92 in 10.0 mi South 9.2 mph - N/A Rain Rain
12:35 AM 64.4 °F 60.8 °F 88% 29.92 in 10.0 mi South 11.5 mph 17.3 mph N/A Rain Light Rain
12:55 AM 64.4 °F 60.8 °F 88% 29.92 in 10.0 mi South 9.2 mph - 0.01 in Rain Light Rain
1:15 AM 64.4 °F 64.4 °F 100% 29.92 in 10.0 mi South 9.2 mph 19.6 mph 0.01 in Rain Light Rain
1:35 AM 64.4 °F 64.4 °F 100% 29.92 in 10.0 mi SSW 9.2 mph - 0.01 in   Overcast
1:55 AM 64.4 °F 64.4 °F 100% 29.91 in 10.0 mi South 5.8 mph - 0.01 in   Overcast
2:15 AM 59.0 °F 59.0 °F 100% 29.92 in 10.0 mi NW 5.8 mph - N/A   Overcast
2:35 AM 55.4 °F 55.4 °F 100% 29.92 in 10.0 mi NW 6.9 mph 16.1 mph N/A   Overcast
2:55 AM 53.6 °F 53.6 °F 100% 29.93 in 10.0 mi WNW 6.9 mph - N/A   Overcast
3:15 AM 53.6 °F 53.6 °F 100% 29.93 in 10.0 mi WNW 8.1 mph - N/A   Overcast
3:55 AM 51.8 °F 51.8 °F 100% 29.91 in 5.0 mi NW 4.6 mph - N/A   Heavy Drizzle
4:15 AM 51.8 °F 51.8 °F 100% 29.91 in 5.0 mi WNW 6.9 mph - 0.07 in Rain Heavy Rain
4:35 AM 51.8 °F 51.8 °F 100% 29.91 in 10.0 mi WNW 6.9 mph - 0.10 in Rain Light Rain
4:55 AM 51.8 °F 51.8 °F 100% 29.91 in 10.0 mi WNW 5.8 mph - 0.12 in Rain Rain
5:15 AM 51.8 °F 51.8 °F 100% 29.91 in 10.0 mi WNW 5.8 mph - 0.01 in Rain Rain
5:35 AM 51.8 °F 51.8 °F 100% 29.92 in 10.0 mi Calm Calm - 0.02 in Rain Rain
5:55 AM 51.8 °F 51.8 °F 100% 29.94 in 7.0 mi WSW 3.5 mph - 0.03 in Rain Heavy Rain
6:15 AM 51.8 °F 51.8 °F 100% 29.94 in 7.0 mi Calm Calm - 0.03 in Rain Light Rain
6:35 AM 51.8 °F 51.8 °F 100% 29.94 in 5.0 mi West 4.6 mph - 0.05 in Rain Heavy Rain
6:55 AM 51.8 °F 51.8 °F 100% 29.95 in 5.0 mi WSW 4.6 mph - 0.09 in Rain Rain
7:15 AM 51.8 °F 51.8 °F 100% 29.97 in 5.0 mi WSW 4.6 mph - 0.02 in Rain Heavy Rain
7:35 AM 51.8 °F 51.8 °F 100% 29.96 in 7.0 mi South 3.5 mph - 0.04 in Rain Rain
7:55 AM 51.8 °F 51.8 °F 100% 29.95 in 10.0 mi Calm Calm - 0.05 in   Drizzle
8:15 AM 51.8 °F 51.8 °F 100% 29.96 in 10.0 mi Calm Calm - N/A   Overcast
8:35 AM 51.8 °F 51.8 °F 100% 29.96 in 10.0 mi West 3.5 mph - N/A   Overcast
8:55 AM 51.8 °F 51.8 °F 100% 29.98 in 10.0 mi West 5.8 mph - N/A   Overcast
9:15 AM 51.8 °F 51.8 °F 100% 30.00 in 10.0 mi WSW 5.8 mph - N/A   Overcast
9:35 AM 51.8 °F 51.8 °F 100% 30.01 in 10.0 mi WSW 6.9 mph - N/A   Mostly Cloudy
9:55 AM 53.6 °F 53.6 °F 100% 30.01 in 10.0 mi West 4.6 mph - N/A   Scattered Clouds
10:15 AM 53.6 °F 53.6 °F 100% 30.01 in 10.0 mi WSW 4.6 mph - N/A   Mostly Cloudy
10:35 AM 53.6 °F 53.6 °F 100% 30.02 in 10.0 mi WNW 6.9 mph - N/A   Overcast
10:55 AM 53.6 °F 53.6 °F 100% 30.02 in 10.0 mi WNW 6.9 mph - N/A   Mostly Cloudy
11:15 AM 55.4 °F 51.8 °F 88% 30.03 in 10.0 mi NNW 8.1 mph - N/A   Mostly Cloudy
11:35 AM 55.4 °F 50.0 °F 82% 30.04 in 10.0 mi WNW 10.4 mph - N/A   Mostly Cloudy
11:55 AM 57.2 °F 50.0 °F 77% 30.04 in 10.0 mi WNW 4.6 mph - N/A   Scattered Clouds
12:15 PM 55.4 °F 46.4 °F 72% 30.04 in 10.0 mi West 8.1 mph - N/A   Scattered Clouds
12:35 PM 59.0 °F 48.2 °F 67% 30.03 in 10.0 mi West 5.8 mph - N/A   Mostly Cloudy
12:55 PM 59.0 °F 48.2 °F 67% 30.03 in 10.0 mi West 9.2 mph - N/A   Overcast
1:15 PM 59.0 °F 48.2 °F 67% 30.03 in 10.0 mi NW 8.1 mph - N/A   Scattered Clouds
1:35 PM 60.8 °F 46.4 °F 59% 30.03 in 10.0 mi WNW 6.9 mph 16.1 mph N/A   Clear
1:55 PM 60.8 °F 46.4 °F 59% 30.02 in 10.0 mi WNW 9.2 mph - N/A   Clear
2:15 PM 60.8 °F 44.6 °F 55% 30.02 in 10.0 mi WNW 8.1 mph - N/A   Clear
2:35 PM 62.6 °F 44.6 °F 52% 30.02 in 10.0 mi NNW 6.9 mph - N/A   Clear
2:55 PM 60.8 °F 46.4 °F 59% 30.02 in 10.0 mi NNW 3.5 mph - N/A   Clear
3:15 PM 60.8 °F 44.6 °F 55% 30.02 in 10.0 mi West 8.1 mph - N/A   Clear
3:35 PM 62.6 °F 46.4 °F 55% 30.02 in 10.0 mi NNW 6.9 mph - N/A   Clear
3:55 PM 60.8 °F 44.6 °F 55% 30.03 in 10.0 mi NW 6.9 mph - N/A   Clear
4:15 PM 62.6 °F 46.4 °F 55% 30.03 in 10.0 mi West 6.9 mph - N/A   Clear
4:35 PM 62.6 °F 46.4 °F 55% 30.03 in 10.0 mi WNW 6.9 mph - N/A   Clear
4:55 PM 62.6 °F 46.4 °F 55% 30.03 in 10.0 mi North 6.9 mph - N/A   Clear
5:15 PM 62.6 °F 46.4 °F 55% 30.04 in 10.0 mi NNW 5.8 mph - N/A   Clear
5:35 PM 60.8 °F 46.4 °F 59% 30.04 in 10.0 mi NW 8.1 mph - N/A   Clear
5:55 PM 60.8 °F 44.6 °F 55% 30.05 in 10.0 mi NNW 6.9 mph - N/A   Clear
6:15 PM 60.8 °F 44.6 °F 55% 30.05 in 10.0 mi NW 6.9 mph - N/A   Clear
6:35 PM 59.0 °F 46.4 °F 63% 30.06 in 10.0 mi NW 5.8 mph - N/A   Clear
6:55 PM 55.4 °F 44.6 °F 67% 30.07 in 10.0 mi NW 5.8 mph - N/A   Clear
7:15 PM 55.4 °F 44.6 °F 67% 30.08 in 10.0 mi NW 3.5 mph - N/A   Clear
7:35 PM 53.6 °F 44.6 °F 72% 30.08 in 10.0 mi NW 3.5 mph - N/A   Clear
7:55 PM 53.6 °F 44.6 °F 72% 30.09 in 10.0 mi Calm Calm - N/A   Clear
8:15 PM 53.6 °F 44.6 °F 72% 30.10 in 10.0 mi Calm Calm - N/A   Clear
8:35 PM 51.8 °F 44.6 °F 76% 30.10 in 10.0 mi North 3.5 mph - N/A   Clear
8:55 PM 51.8 °F 44.6 °F 76% 30.11 in 10.0 mi NNW 5.8 mph - N/A   Clear
9:15 PM 51.8 °F 44.6 °F 76% 30.11 in 10.0 mi NNW 4.6 mph - N/A   Clear
9:35 PM 51.8 °F 44.6 °F 76% 30.12 in 10.0 mi NNW 6.9 mph - N/A   Clear
9:55 PM 51.8 °F 44.6 °F 76% 30.12 in 10.0 mi North 6.9 mph - N/A   Clear
10:15 PM 51.8 °F 44.6 °F 76% 30.14 in 10.0 mi North 5.8 mph - N/A   Clear
10:35 PM 50.0 °F 42.8 °F 76% 30.14 in 10.0 mi North 6.9 mph - N/A   Clear
10:55 PM 50.0 °F 42.8 °F 76% 30.15 in 10.0 mi North 3.5 mph - N/A   Clear
11:15 PM 50.0 °F 42.8 °F 76% 30.16 in 10.0 mi North 4.6 mph - N/A   Clear
11:35 PM 48.2 °F 42.8 °F 82% 30.16 in 10.0 mi NNE 4.6 mph - N/A   Clear
11:55 PM 48.2 °F 42.8 °F 82% 30.16 in 10.0 mi Calm Calm - N/A   Clear